Time,TemperatureF,DewpointF,PressureIn,WindDirection,WindDirectionDegrees,WindSpeedMPH,WindSpeedGustMPH,Humidity,HourlyPrecipIn,Conditions,Clouds,dailyrainin,SoftwareType,DateUTC
2013-02-17 00:00:00,35.6,31.5,30.07,East,101,0.0,0.0,85,0.00,,,0.00,Wunderground v.1.15,2013-02-17 08:00:00,
2013-02-17 00:10:00,35.5,31.7,30.07,East,101,0.0,1.0,86,0.00,,,0.00,Wunderground v.1.15,2013-02-17 08:10:00,
2013-02-17 00:15:00,35.2,31.4,30.07,East,101,0.0,1.0,86,0.00,,,0.00,Wunderground v.1.15,2013-02-17 08:15:00,
2013-02-17 00:20:00,34.9,31.1,30.07,East,101,0.0,0.0,86,0.00,,,0.00,Wunderground v.1.15,2013-02-17 08:20:00,
2013-02-17 00:30:00,34.3,30.8,30.07,East,101,0.0,0.0,87,0.00,,,0.00,Wunderground v.1.15,2013-02-17 08:30:00,
2013-02-17 00:35:00,34.1,30.6,30.07,East,101,0.0,0.0,87,0.00,,,0.00,Wunderground v.1.15,2013-02-17 08:35:00,
2013-02-17 00:40:00,34.1,30.6,30.07,East,101,0.0,0.0,87,0.00,,,0.00,Wunderground v.1.15,2013-02-17 08:40:00,
2013-02-17 00:45:00,34.0,30.5,30.07,East,101,0.0,0.0,87,0.00,,,0.00,Wunderground v.1.15,2013-02-17 08:45:00,
2013-02-17 00:50:00,33.7,30.2,30.07,East,101,0.0,0.0,87,0.00,,,0.00,Wunderground v.1.15,2013-02-17 08:50:00,
2013-02-17 01:00:00,33.4,29.9,30.07,East,101,0.0,0.0,87,0.00,,,0.00,Wunderground v.1.15,2013-02-17 09:00:00,
2013-02-17 01:05:00,33.2,29.8,30.07,East,101,0.0,0.0,87,0.00,,,0.00,Wunderground v.1.15,2013-02-17 09:05:00,
2013-02-17 01:10:00,33.1,29.9,30.07,East,101,0.0,0.0,88,0.00,,,0.00,Wunderground v.1.15,2013-02-17 09:10:00,
2013-02-17 01:20:00,32.9,29.7,30.07,East,101,0.0,0.0,88,0.00,,,0.00,Wunderground v.1.15,2013-02-17 09:20:00,
2013-02-17 01:25:00,32.8,29.6,30.07,East,101,0.0,0.0,88,0.00,,,0.00,Wunderground v.1.15,2013-02-17 09:25:00,
2013-02-17 01:30:00,32.8,29.6,30.06,East,101,0.0,0.0,88,0.00,,,0.00,Wunderground v.1.15,2013-02-17 09:30:00,
2013-02-17 01:40:00,32.7,29.5,30.06,East,101,0.0,0.0,88,0.00,,,0.00,Wunderground v.1.15,2013-02-17 09:40:00,
2013-02-17 01:45:00,32.5,29.3,30.06,East,101,0.0,0.0,88,0.00,,,0.00,Wunderground v.1.15,2013-02-17 09:45:00,
2013-02-17 01:55:00,32.4,29.5,30.06,East,101,0.0,1.0,89,0.00,,,0.00,Wunderground v.1.15,2013-02-17 09:55:00,
2013-02-17 02:00:00,32.4,29.5,30.06,East,101,1.0,1.0,89,0.00,,,0.00,Wunderground v.1.15,2013-02-17 10:00:00,
2013-02-17 02:10:00,32.1,29.2,30.06,SSE,155,1.0,1.0,89,0.00,,,0.00,Wunderground v.1.15,2013-02-17 10:10:00,
2013-02-17 02:15:00,31.9,29.0,30.06,SSE,155,0.0,1.0,89,0.00,,,0.00,Wunderground v.1.15,2013-02-17 10:15:00,
2013-02-17 02:20:00,31.9,29.0,30.06,SSE,155,0.0,0.0,89,0.00,,,0.00,Wunderground v.1.15,2013-02-17 10:20:00,
2013-02-17 02:30:00,31.8,28.9,30.06,SSE,155,0.0,0.0,89,0.00,,,0.00,Wunderground v.1.15,2013-02-17 10:30:00,
2013-02-17 02:35:00,31.9,29.3,30.06,SSE,155,0.0,0.0,90,0.00,,,0.00,Wunderground v.1.15,2013-02-17 10:35:00,
2013-02-17 02:40:00,31.9,29.3,30.06,SSE,157,0.0,2.0,90,0.00,,,0.00,Wunderground v.1.15,2013-02-17 10:40:00,
2013-02-17 02:45:00,31.9,29.3,30.06,SSW,196,1.0,2.0,90,0.00,,,0.00,Wunderground v.1.15,2013-02-17 10:45:00,
2013-02-17 02:55:00,31.5,28.9,30.06,SSW,196,0.0,1.0,90,0.00,,,0.00,Wunderground v.1.15,2013-02-17 10:55:00,
2013-02-17 03:00:00,31.3,28.4,30.05,SSW,196,0.0,0.0,89,0.00,,,0.00,Wunderground v.1.15,2013-02-17 11:00:00,
2013-02-17 03:10:00,31.0,28.4,30.05,SSW,196,0.0,0.0,90,0.00,,,0.00,Wunderground v.1.15,2013-02-17 11:10:00,
2013-02-17 03:15:00,30.7,27.8,30.04,SSW,196,0.0,0.0,89,0.00,,,0.00,Wunderground v.1.15,2013-02-17 11:15:00,
2013-02-17 03:20:00,30.7,28.1,30.04,West,268,1.0,3.0,90,0.00,,,0.00,Wunderground v.1.15,2013-02-17 11:20:00,
2013-02-17 03:25:00,31.0,28.4,30.04,West,268,1.0,3.0,90,0.00,,,0.00,Wunderground v.1.15,2013-02-17 11:25:00,
2013-02-17 03:30:00,30.7,28.1,30.04,West,268,1.0,1.0,90,0.00,,,0.00,Wunderground v.1.15,2013-02-17 11:30:00,
2013-02-17 03:40:00,30.6,28.0,30.04,West,268,0.0,0.0,90,0.00,,,0.00,Wunderground v.1.15,2013-02-17 11:40:00,
2013-02-17 03:45:00,30.4,27.8,30.04,West,268,0.0,1.0,90,0.00,,,0.00,Wunderground v.1.15,2013-02-17 11:45:00,
2013-02-17 03:55:00,30.4,27.8,30.04,West,268,1.0,1.0,90,0.00,,,0.00,Wunderground v.1.15,2013-02-17 11:55:00,
2013-02-17 04:00:00,30.3,27.7,30.04,West,268,1.0,2.0,90,0.00,,,0.00,Wunderground v.1.15,2013-02-17 12:00:00,
2013-02-17 04:10:00,30.3,27.7,30.04,West,268,1.0,2.0,90,0.00,,,0.00,Wunderground v.1.15,2013-02-17 12:10:00,
2013-02-17 04:15:00,30.4,28.1,30.04,West,268,1.0,2.0,91,0.00,,,0.00,Wunderground v.1.15,2013-02-17 12:15:00,
2013-02-17 04:20:00,30.4,28.1,30.04,West,268,1.0,2.0,91,0.00,,,0.00,Wunderground v.1.15,2013-02-17 12:20:00,
2013-02-17 04:25:00,30.4,28.1,30.04,West,268,1.0,2.0,91,0.00,,,0.00,Wunderground v.1.15,2013-02-17 12:25:00,
2013-02-17 04:30:00,30.3,28.0,30.04,West,268,0.0,0.0,91,0.00,,,0.00,Wunderground v.1.15,2013-02-17 12:30:00,
2013-02-17 04:40:00,30.1,27.8,30.04,West,268,0.0,0.0,91,0.00,,,0.00,Wunderground v.1.15,2013-02-17 12:40:00,
2013-02-17 04:45:00,30.1,27.8,30.04,West,268,1.0,2.0,91,0.00,,,0.00,Wunderground v.1.15,2013-02-17 12:45:00,
2013-02-17 04:50:00,30.1,27.8,30.04,West,268,1.0,1.0,91,0.00,,,0.00,Wunderground v.1.15,2013-02-17 12:50:00,
2013-02-17 04:55:00,30.0,27.7,30.04,West,268,1.0,1.0,91,0.00,,,0.00,Wunderground v.1.15,2013-02-17 12:55:00,
2013-02-17 05:00:00,30.1,27.8,30.04,West,268,1.0,1.0,91,0.00,,,0.00,Wunderground v.1.15,2013-02-17 13:00:00,
2013-02-17 05:10:00,30.0,27.7,30.04,West,268,0.0,0.0,91,0.00,,,0.00,Wunderground v.1.15,2013-02-17 13:10:00,
2013-02-17 05:15:00,29.8,27.5,30.04,West,268,0.0,0.0,91,0.00,,,0.00,Wunderground v.1.15,2013-02-17 13:15:00,
2013-02-17 05:20:00,29.8,27.5,30.04,West,268,0.0,0.0,91,0.00,,,0.00,Wunderground v.1.15,2013-02-17 13:20:00,
2013-02-17 05:25:00,29.7,27.4,30.04,West,268,0.0,0.0,91,0.00,,,0.00,Wunderground v.1.15,2013-02-17 13:25:00,
2013-02-17 05:30:00,29.7,27.4,30.05,West,268,0.0,0.0,91,0.00,,,0.00,Wunderground v.1.15,2013-02-17 13:30:00,
2013-02-17 05:35:00,29.7,27.4,30.05,West,268,0.0,0.0,91,0.00,,,0.00,Wunderground v.1.15,2013-02-17 13:35:00,
2013-02-17 05:45:00,29.5,27.2,30.05,West,268,0.0,0.0,91,0.00,,,0.00,Wunderground v.1.15,2013-02-17 13:45:00,
2013-02-17 05:55:00,29.4,27.1,30.05,West,268,0.0,0.0,91,0.00,,,0.00,Wunderground v.1.15,2013-02-17 13:55:00,
2013-02-17 06:00:00,29.4,27.1,30.06,West,268,0.0,0.0,91,0.00,,,0.00,Wunderground v.1.15,2013-02-17 14:00:00,
2013-02-17 06:05:00,29.3,27.0,30.06,West,268,0.0,0.0,91,0.00,,,0.00,Wunderground v.1.15,2013-02-17 14:05:00,
2013-02-17 06:10:00,29.3,27.0,30.06,West,268,1.0,1.0,91,0.00,,,0.00,Wunderground v.1.15,2013-02-17 14:10:00,
2013-02-17 06:20:00,29.1,26.8,30.06,West,268,0.0,2.0,91,0.00,,,0.00,Wunderground v.1.15,2013-02-17 14:20:00,
2013-02-17 06:25:00,29.1,26.8,30.06,West,268,0.0,2.0,91,0.00,,,0.00,Wunderground v.1.15,2013-02-17 14:25:00,
2013-02-17 06:35:00,29.1,26.8,30.06,West,268,0.0,1.0,91,0.00,,,0.00,Wunderground v.1.15,2013-02-17 14:35:00,
2013-02-17 06:40:00,29.0,26.7,30.06,West,268,0.0,0.0,91,0.00,,,0.00,Wunderground v.1.15,2013-02-17 14:40:00,
2013-02-17 06:50:00,29.0,27.0,30.06,West,268,1.0,1.0,92,0.00,,,0.00,Wunderground v.1.15,2013-02-17 14:50:00,
2013-02-17 06:55:00,29.1,26.8,30.06,West,268,1.0,2.0,91,0.00,,,0.00,Wunderground v.1.15,2013-02-17 14:55:00,
2013-02-17 07:00:00,29.0,26.7,30.07,West,268,1.0,1.0,91,0.00,,,0.00,Wunderground v.1.15,2013-02-17 15:00:00,
2013-02-17 07:05:00,29.0,26.7,30.07,West,268,1.0,1.0,91,0.00,,,0.00,Wunderground v.1.15,2013-02-17 15:05:00,
2013-02-17 07:10:00,28.8,26.5,30.07,West,268,1.0,2.0,91,0.00,,,0.00,Wunderground v.1.15,2013-02-17 15:10:00,
2013-02-17 07:20:00,28.8,26.5,30.07,West,268,1.0,1.0,91,0.00,,,0.00,Wunderground v.1.15,2013-02-17 15:20:00,
2013-02-17 07:25:00,29.0,26.7,30.07,West,268,0.0,1.0,91,0.00,,,0.00,Wunderground v.1.15,2013-02-17 15:25:00,
2013-02-17 07:30:00,29.1,27.1,30.07,West,268,0.0,0.0,92,0.00,,,0.00,Wunderground v.1.15,2013-02-17 15:30:00,
2013-02-17 07:35:00,29.3,27.3,30.07,West,268,0.0,0.0,92,0.00,,,0.00,Wunderground v.1.15,2013-02-17 15:35:00,
2013-02-17 07:40:00,29.5,27.5,30.07,West,268,0.0,0.0,92,0.00,,,0.00,Wunderground v.1.15,2013-02-17 15:40:00,
2013-02-17 07:50:00,30.0,28.0,30.07,West,268,0.0,0.0,92,0.00,,,0.00,Wunderground v.1.15,2013-02-17 15:50:00,
2013-02-17 07:55:00,30.3,28.3,30.07,West,268,0.0,0.0,92,0.00,,,0.00,Wunderground v.1.15,2013-02-17 15:55:00,
2013-02-17 08:00:00,30.9,28.9,30.07,West,268,0.0,0.0,92,0.00,,,0.00,Wunderground v.1.15,2013-02-17 16:00:00,
2013-02-17 08:10:00,32.4,30.1,30.07,West,268,0.0,0.0,91,0.00,,,0.00,Wunderground v.1.15,2013-02-17 16:10:00,
2013-02-17 08:15:00,32.9,30.3,30.07,West,268,0.0,0.0,90,0.00,,,0.00,Wunderground v.1.15,2013-02-17 16:15:00,
2013-02-17 08:20:00,34.3,31.4,30.07,West,268,0.0,0.0,89,0.00,,,0.00,Wunderground v.1.15,2013-02-17 16:20:00,
2013-02-17 08:25:00,34.4,31.2,30.07,West,268,0.0,0.0,88,0.00,,,0.00,Wunderground v.1.15,2013-02-17 16:25:00,
2013-02-17 08:30:00,34.6,31.4,30.07,West,268,0.0,1.0,88,0.00,,,0.00,Wunderground v.1.15,2013-02-17 16:30:00,
2013-02-17 08:40:00,36.3,32.8,30.07,West,268,0.0,0.0,87,0.00,,,0.00,Wunderground v.1.15,2013-02-17 16:40:00,
2013-02-17 08:45:00,37.2,33.4,30.07,West,268,0.0,0.0,86,0.00,,,0.00,Wunderground v.1.15,2013-02-17 16:45:00,
2013-02-17 08:50:00,38.5,34.4,30.07,West,268,0.0,0.0,85,0.00,,,0.00,Wunderground v.1.15,2013-02-17 16:50:00,
2013-02-17 08:55:00,39.6,35.2,30.07,West,268,0.0,0.0,84,0.00,,,0.00,Wunderground v.1.15,2013-02-17 16:55:00,
2013-02-17 09:00:00,40.8,35.4,30.07,West,268,0.0,0.0,81,0.00,,,0.00,Wunderground v.1.15,2013-02-17 17:00:00,
2013-02-17 09:10:00,43.3,37.2,30.07,West,268,0.0,0.0,79,0.00,,,0.00,Wunderground v.1.15,2013-02-17 17:10:00,
2013-02-17 09:15:00,44.5,38.1,30.07,West,268,0.0,0.0,78,0.00,,,0.00,Wunderground v.1.15,2013-02-17 17:15:00,
2013-02-17 09:25:00,47.6,39.4,30.07,West,268,0.0,0.0,73,0.00,,,0.00,Wunderground v.1.15,2013-02-17 17:25:00,
2013-02-17 09:30:00,48.8,39.1,30.07,West,268,0.0,1.0,69,0.00,,,0.00,Wunderground v.1.15,2013-02-17 17:30:00,
2013-02-17 09:40:00,51.3,38.7,30.07,West,265,1.0,1.0,62,0.00,,,0.00,Wunderground v.1.15,2013-02-17 17:40:00,
2013-02-17 09:45:00,52.2,38.7,30.07,WSW,240,1.0,3.0,60,0.00,,,0.00,Wunderground v.1.15,2013-02-17 17:45:00,
2013-02-17 09:50:00,52.2,39.6,30.07,West,267,2.0,2.0,62,0.00,,,0.00,Wunderground v.1.15,2013-02-17 17:50:00,
2013-02-17 09:55:00,52.6,39.1,30.07,West,259,3.0,3.0,60,0.00,,,0.00,Wunderground v.1.15,2013-02-17 17:55:00,
2013-02-17 10:00:00,53.8,40.2,30.06,SW,231,2.0,3.0,60,0.00,,,0.00,Wunderground v.1.15,2013-02-17 18:00:00,
2013-02-17 10:10:00,55.7,40.2,30.06,SW,227,2.0,2.0,56,0.00,,,0.00,Wunderground v.1.15,2013-02-17 18:10:00,
2013-02-17 10:15:00,57.0,41.0,30.06,SW,227,1.0,2.0,55,0.00,,,0.00,Wunderground v.1.15,2013-02-17 18:15:00,
2013-02-17 10:20:00,57.5,39.5,30.06,WSW,248,1.0,2.0,51,0.00,,,0.00,Wunderground v.1.15,2013-02-17 18:20:00,
2013-02-17 10:25:00,58.4,37.1,30.06,SW,217,1.0,2.0,45,0.00,,,0.00,Wunderground v.1.15,2013-02-17 18:25:00,
2013-02-17 10:35:00,58.7,33.8,30.05,West,267,4.0,4.0,39,0.00,,,0.00,Wunderground v.1.15,2013-02-17 18:35:00,
2013-02-17 10:40:00,59.5,32.5,30.05,WSW,242,4.0,4.0,36,0.00,,,0.00,Wunderground v.1.15,2013-02-17 18:40:00,
2013-02-17 10:45:00,59.6,29.7,30.05,SW,233,5.0,5.0,32,0.00,,,0.00,Wunderground v.1.15,2013-02-17 18:45:00,
2013-02-17 10:50:00,60.2,29.4,30.05,SW,235,5.0,6.0,31,0.00,,,0.00,Wunderground v.1.15,2013-02-17 18:50:00,
2013-02-17 11:00:00,61.0,26.7,30.04,West,265,6.0,13.0,27,0.00,,,0.00,Wunderground v.1.15,2013-02-17 19:00:00,
2013-02-17 11:05:00,61.2,26.9,30.04,WSW,258,7.0,13.0,27,0.00,,,0.00,Wunderground v.1.15,2013-02-17 19:05:00,
2013-02-17 11:10:00,61.6,27.3,30.04,West,264,7.0,7.0,27,0.00,,,0.00,Wunderground v.1.15,2013-02-17 19:10:00,
2013-02-17 11:15:00,62.6,26.2,30.04,WNW,302,5.0,10.0,25,0.00,,,0.00,Wunderground v.1.15,2013-02-17 19:15:00,
2013-02-17 11:20:00,62.3,24.0,30.04,SW,229,6.0,7.0,23,0.00,,,0.00,Wunderground v.1.15,2013-02-17 19:20:00,
2013-02-17 11:30:00,62.4,23.0,30.04,NW,317,8.0,8.0,22,0.00,,,0.00,Wunderground v.1.15,2013-02-17 19:30:00,
2013-02-17 11:35:00,62.6,23.2,30.04,NNW,338,8.0,8.0,22,0.00,,,0.00,Wunderground v.1.15,2013-02-17 19:35:00,
2013-02-17 11:45:00,62.9,23.4,30.04,WNW,292,9.0,10.0,22,0.00,,,0.00,Wunderground v.1.15,2013-02-17 19:45:00,
2013-02-17 11:50:00,63.1,23.6,30.04,SW,231,9.0,9.0,22,0.00,,,0.00,Wunderground v.1.15,2013-02-17 19:50:00,
2013-02-17 11:55:00,63.7,24.1,30.04,NW,322,7.0,9.0,22,0.00,,,0.00,Wunderground v.1.15,2013-02-17 19:55:00,
2013-02-17 12:00:00,63.9,25.3,30.03,East,85,5.0,5.0,23,0.00,,,0.00,Wunderground v.1.15,2013-02-17 20:00:00,
2013-02-17 12:10:00,64.7,24.9,30.03,SSW,199,3.0,3.0,22,0.00,,,0.00,Wunderground v.1.15,2013-02-17 20:10:00,
2013-02-17 12:15:00,64.8,23.9,30.02,WSW,238,4.0,5.0,21,0.00,,,0.00,Wunderground v.1.15,2013-02-17 20:15:00,
2013-02-17 12:20:00,65.2,23.1,30.02,WSW,240,5.0,6.0,20,0.00,,,0.00,Wunderground v.1.15,2013-02-17 20:20:00,
2013-02-17 12:25:00,64.8,22.7,30.02,West,259,4.0,8.0,20,0.00,,,0.00,Wunderground v.1.15,2013-02-17 20:25:00,
2013-02-17 12:35:00,65.5,23.3,30.01,SE,132,4.0,5.0,20,0.00,,,0.00,Wunderground v.1.15,2013-02-17 20:35:00,
2013-02-17 12:40:00,65.8,23.6,30.01,West,279,3.0,3.0,20,0.00,,,0.00,Wunderground v.1.15,2013-02-17 20:40:00,
2013-02-17 12:45:00,65.5,22.1,30.01,East,79,2.0,5.0,19,0.00,,,0.00,Wunderground v.1.15,2013-02-17 20:45:00,
2013-02-17 12:50:00,65.6,22.2,30.01,East,90,4.0,4.0,19,0.00,,,0.00,Wunderground v.1.15,2013-02-17 20:50:00,
2013-02-17 13:00:00,66.3,22.8,30.00,WSW,244,3.0,3.0,19,0.00,,,0.00,Wunderground v.1.15,2013-02-17 21:00:00,
2013-02-17 13:05:00,66.3,22.8,30.00,NW,316,2.0,3.0,19,0.00,,,0.00,Wunderground v.1.15,2013-02-17 21:05:00,
2013-02-17 13:10:00,66.3,22.8,30.00,WSW,254,3.0,3.0,19,0.00,,,0.00,Wunderground v.1.15,2013-02-17 21:10:00,
2013-02-17 13:15:00,66.4,22.8,29.99,SSW,206,2.0,3.0,19,0.00,,,0.00,Wunderground v.1.15,2013-02-17 21:15:00,
2013-02-17 13:20:00,66.6,20.4,29.99,WSW,248,2.0,4.0,17,0.00,,,0.00,Wunderground v.1.15,2013-02-17 21:20:00,
2013-02-17 13:30:00,65.8,22.3,29.99,West,267,5.0,6.0,19,0.00,,,0.00,Wunderground v.1.15,2013-02-17 21:30:00,
2013-02-17 13:40:00,66.4,20.2,29.99,SSW,199,2.0,2.0,17,0.00,,,0.00,Wunderground v.1.15,2013-02-17 21:40:00,
2013-02-17 13:45:00,66.8,21.9,29.98,SSW,203,2.0,2.0,18,0.00,,,0.00,Wunderground v.1.15,2013-02-17 21:45:00,
2013-02-17 13:50:00,67.6,22.5,29.98,SSE,147,2.0,2.0,18,0.00,,,0.00,Wunderground v.1.15,2013-02-17 21:50:00,
2013-02-17 14:00:00,66.8,20.5,29.98,East,83,3.0,3.0,17,0.00,,,0.00,Wunderground v.1.15,2013-02-17 22:00:00,
2013-02-17 14:05:00,66.6,20.4,29.98,ESE,123,3.0,3.0,17,0.00,,,0.00,Wunderground v.1.15,2013-02-17 22:05:00,
2013-02-17 14:10:00,67.1,20.8,29.98,SE,142,2.0,2.0,17,0.00,,,0.00,Wunderground v.1.15,2013-02-17 22:10:00,
2013-02-17 14:15:00,67.6,21.2,29.98,WSW,256,2.0,5.0,17,0.00,,,0.00,Wunderground v.1.15,2013-02-17 22:15:00,
2013-02-17 14:20:00,67.6,21.2,29.98,West,263,3.0,4.0,17,0.00,,,0.00,Wunderground v.1.15,2013-02-17 22:20:00,
2013-02-17 14:30:00,68.3,21.8,29.97,SSW,196,2.0,2.0,17,0.00,,,0.00,Wunderground v.1.15,2013-02-17 22:30:00,
2013-02-17 14:35:00,68.6,20.6,29.97,ENE,78,0.0,2.0,16,0.00,,,0.00,Wunderground v.1.15,2013-02-17 22:35:00,
2013-02-17 14:40:00,67.9,18.5,29.97,East,80,1.0,1.0,15,0.00,,,0.00,Wunderground v.1.15,2013-02-17 22:40:00,
2013-02-17 14:45:00,67.8,18.4,29.97,ESE,109,1.0,1.0,15,0.00,,,0.00,Wunderground v.1.15,2013-02-17 22:45:00,
2013-02-17 14:55:00,68.1,18.7,29.97,SE,126,1.0,1.0,15,0.00,,,0.00,Wunderground v.1.15,2013-02-17 22:55:00,
2013-02-17 15:00:00,68.1,18.7,29.97,SSE,154,0.0,0.0,15,0.00,,,0.00,Wunderground v.1.15,2013-02-17 23:00:00,
2013-02-17 15:05:00,68.6,19.1,29.97,SW,236,1.0,4.0,15,0.00,,,0.00,Wunderground v.1.15,2013-02-17 23:05:00,
2013-02-17 15:10:00,68.1,20.2,29.97,SW,219,2.0,2.0,16,0.00,,,0.00,Wunderground v.1.15,2013-02-17 23:10:00,
2013-02-17 15:20:00,67.8,19.9,29.96,SSW,207,0.0,1.0,16,0.00,,,0.00,Wunderground v.1.15,2013-02-17 23:20:00,
2013-02-17 15:25:00,66.9,23.3,29.96,ESE,122,1.0,1.0,19,0.00,,,0.00,Wunderground v.1.15,2013-02-17 23:25:00,
2013-02-17 15:30:00,66.6,23.0,29.96,SE,136,1.0,1.0,19,0.00,,,0.00,Wunderground v.1.15,2013-02-17 23:30:00,
2013-02-17 15:35:00,66.3,22.8,29.96,SE,136,1.0,2.0,19,0.00,,,0.00,Wunderground v.1.15,2013-02-17 23:35:00,
2013-02-17 15:40:00,66.1,22.6,29.96,ESE,115,1.0,1.0,19,0.00,,,0.00,Wunderground v.1.15,2013-02-17 23:40:00,
2013-02-17 15:50:00,65.8,22.3,29.96,SE,128,1.0,1.0,19,0.00,,,0.00,Wunderground v.1.15,2013-02-17 23:50:00,
2013-02-17 15:55:00,65.6,23.4,29.96,ESE,121,1.0,2.0,20,0.00,,,0.00,Wunderground v.1.15,2013-02-17 23:55:00,
2013-02-17 16:00:00,65.5,23.3,29.96,ESE,112,1.0,3.0,20,0.00,,,0.00,Wunderground v.1.15,2013-02-18 00:00:00,
2013-02-17 16:05:00,65.0,22.9,29.96,ESE,119,2.0,3.0,20,0.00,,,0.00,Wunderground v.1.15,2013-02-18 00:05:00,
2013-02-17 16:10:00,65.0,22.9,29.96,SE,128,1.0,2.0,20,0.00,,,0.00,Wunderground v.1.15,2013-02-18 00:10:00,
2013-02-17 16:20:00,64.5,22.5,29.96,SE,125,2.0,2.0,20,0.00,,,0.00,Wunderground v.1.15,2013-02-18 00:20:00,
2013-02-17 16:25:00,64.2,23.4,29.96,SE,132,1.0,2.0,21,0.00,,,0.00,Wunderground v.1.15,2013-02-18 00:25:00,
2013-02-17 16:30:00,64.0,23.2,29.96,SE,132,1.0,1.0,21,0.00,,,0.00,Wunderground v.1.15,2013-02-18 00:30:00,
2013-02-17 16:40:00,63.4,23.8,29.96,SE,132,0.0,0.0,22,0.00,,,0.00,Wunderground v.1.15,2013-02-18 00:40:00,
2013-02-17 16:45:00,63.1,23.6,29.96,SE,132,0.0,0.0,22,0.00,,,0.00,Wunderground v.1.15,2013-02-18 00:45:00,
2013-02-17 16:55:00,62.9,23.4,29.96,SE,132,0.0,0.0,22,0.00,,,0.00,Wunderground v.1.15,2013-02-18 00:55:00,
2013-02-17 17:00:00,62.7,26.3,29.96,SE,132,0.0,0.0,25,0.00,,,0.00,Wunderground v.1.15,2013-02-18 01:00:00,
2013-02-17 17:10:00,62.0,27.6,29.96,SE,128,0.0,1.0,27,0.00,,,0.00,Wunderground v.1.15,2013-02-18 01:10:00,
2013-02-17 17:15:00,61.5,31.3,29.96,SE,128,1.0,1.0,32,0.00,,,0.00,Wunderground v.1.15,2013-02-18 01:15:00,
2013-02-17 17:20:00,60.9,30.0,29.96,SE,128,0.0,0.0,31,0.00,,,0.00,Wunderground v.1.15,2013-02-18 01:20:00,
2013-02-17 17:30:00,59.8,35.4,29.96,SE,128,0.0,0.0,40,0.00,,,0.00,Wunderground v.1.15,2013-02-18 01:30:00,
2013-02-17 17:35:00,59.3,36.8,29.96,SE,128,0.0,0.0,43,0.00,,,0.00,Wunderground v.1.15,2013-02-18 01:35:00,
2013-02-17 17:40:00,58.9,37.0,29.96,SE,128,0.0,0.0,44,0.00,,,0.00,Wunderground v.1.15,2013-02-18 01:40:00,
2013-02-17 17:45:00,58.1,37.4,29.96,SE,128,0.0,0.0,46,0.00,,,0.00,Wunderground v.1.15,2013-02-18 01:45:00,
2013-02-17 17:55:00,56.6,36.6,29.96,SE,128,0.0,0.0,47,0.00,,,0.00,Wunderground v.1.15,2013-02-18 01:55:00,
2013-02-17 18:00:00,55.6,36.7,29.96,SE,128,0.0,0.0,49,0.00,,,0.00,Wunderground v.1.15,2013-02-18 02:00:00,
2013-02-17 18:05:00,54.7,36.9,29.96,SE,128,0.0,0.0,51,0.00,,,0.00,Wunderground v.1.15,2013-02-18 02:05:00,
2013-02-17 18:10:00,53.9,36.7,29.96,SE,128,0.0,0.0,52,0.00,,,0.00,Wunderground v.1.15,2013-02-18 02:10:00,
2013-02-17 18:20:00,52.2,36.0,29.96,West,261,0.0,0.0,54,0.00,,,0.00,Wunderground v.1.15,2013-02-18 02:20:00,
2013-02-17 18:25:00,51.4,36.7,29.96,West,261,0.0,0.0,57,0.00,,,0.00,Wunderground v.1.15,2013-02-18 02:25:00,
2013-02-17 18:30:00,51.0,36.3,29.96,West,261,0.0,0.0,57,0.00,,,0.00,Wunderground v.1.15,2013-02-18 02:30:00,
2013-02-17 18:40:00,49.8,36.5,29.96,West,261,0.0,0.0,60,0.00,,,0.00,Wunderground v.1.15,2013-02-18 02:40:00,
2013-02-17 18:45:00,49.2,36.3,29.97,West,261,0.0,0.0,61,0.00,,,0.00,Wunderground v.1.15,2013-02-18 02:45:00,
2013-02-17 18:55:00,48.0,35.6,29.97,West,261,0.0,0.0,62,0.00,,,0.00,Wunderground v.1.15,2013-02-18 02:55:00,
2013-02-17 19:00:00,47.6,35.6,29.98,West,261,0.0,0.0,63,0.00,,,0.00,Wunderground v.1.15,2013-02-18 03:00:00,
2013-02-17 19:10:00,46.8,35.6,29.98,West,261,0.0,0.0,65,0.00,,,0.00,Wunderground v.1.15,2013-02-18 03:10:00,
2013-02-17 19:15:00,46.4,35.3,29.98,West,261,0.0,0.0,65,0.00,,,0.00,Wunderground v.1.15,2013-02-18 03:15:00,
2013-02-17 19:20:00,46.0,35.3,29.98,West,261,0.0,0.0,66,0.00,,,0.00,Wunderground v.1.15,2013-02-18 03:20:00,
2013-02-17 19:30:00,45.4,35.5,29.98,West,261,0.0,0.0,68,0.00,,,0.00,Wunderground v.1.15,2013-02-18 03:30:00,
2013-02-17 19:35:00,45.1,35.2,29.98,West,261,0.0,0.0,68,0.00,,,0.00,Wunderground v.1.15,2013-02-18 03:35:00,
2013-02-17 19:45:00,44.1,34.6,29.98,West,261,0.0,2.0,69,0.00,,,0.00,Wunderground v.1.15,2013-02-18 03:45:00,
2013-02-17 19:50:00,43.6,34.5,29.98,West,261,1.0,1.0,70,0.00,,,0.00,Wunderground v.1.15,2013-02-18 03:50:00,
2013-02-17 20:00:00,43.2,35.1,29.99,West,261,0.0,0.0,73,0.00,,,0.00,Wunderground v.1.15,2013-02-18 04:00:00,
2013-02-17 20:05:00,43.1,34.7,29.99,West,261,0.0,0.0,72,0.00,,,0.00,Wunderground v.1.15,2013-02-18 04:05:00,
2013-02-17 20:15:00,42.8,34.7,29.99,West,261,0.0,2.0,73,0.00,,,0.00,Wunderground v.1.15,2013-02-18 04:15:00,
2013-02-17 20:20:00,42.3,34.3,29.99,West,261,1.0,1.0,73,0.00,,,0.00,Wunderground v.1.15,2013-02-18 04:20:00,
2013-02-17 20:30:00,41.8,33.8,29.99,West,261,0.0,0.0,73,0.00,,,0.00,Wunderground v.1.15,2013-02-18 04:30:00,
2013-02-17 20:35:00,41.5,33.8,29.99,West,261,0.0,0.0,74,0.00,,,0.00,Wunderground v.1.15,2013-02-18 04:35:00,
2013-02-17 20:40:00,41.2,33.5,29.99,West,261,0.0,1.0,74,0.00,,,0.00,Wunderground v.1.15,2013-02-18 04:40:00,
2013-02-17 20:45:00,40.9,33.6,30.00,West,261,0.0,1.0,75,0.00,,,0.00,Wunderground v.1.15,2013-02-18 04:45:00,
2013-02-17 20:50:00,40.6,33.6,30.00,West,261,0.0,0.0,76,0.00,,,0.00,Wunderground v.1.15,2013-02-18 04:50:00,
2013-02-17 21:00:00,40.3,33.7,30.00,West,261,0.0,0.0,77,0.00,,,0.00,Wunderground v.1.15,2013-02-18 05:00:00,
2013-02-17 21:05:00,39.9,32.9,30.00,West,261,0.0,0.0,76,0.00,,,0.00,Wunderground v.1.15,2013-02-18 05:05:00,
2013-02-17 21:10:00,39.6,33.0,30.00,West,261,1.0,1.0,77,0.00,,,0.00,Wunderground v.1.15,2013-02-18 05:10:00,